Weather History for Hayward, WI

Change the Weather History Date:

Monday, February 11, 2013

  Actual Average Record
Temperature  
Mean Temperature 26 °F -  
Max Temperature 30 °F 26 °F 45 °F (2005)
Min Temperature 21 °F -3 °F -27 °F (2014)
Degree Days  
Heating Degree Days 40    
Moisture  
Dew Point 24 °F    
Average Humidity 86    
Maximum Humidity 93    
Minimum Humidity 74    
Precipitation  
Precipitation 0.04 in - - ()
Sea Level Pressure  
Sea Level Pressure 29.52 in    
Wind  
Wind Speed 4 mph (NW)    
Max Wind Speed 10 mph    
Max Gust Speed 18 mph    
Visibility 6 miles    
Events Snow    
Averages and records for this station are not official NWS values.
T = Trace of Precipitation, MM = Missing Value Source: NWS Daily Summary

Daily Weather History Graph

Daily Weather History Graph

Search for Another Location

Airport:

Trip Planner

Search our weather history database for the weather conditions in past years. The results will help you decide how hot, cold, wet, or windy it might be!

Date:

Astronomy

Feb. 11, 2013 Rise Set
Actual Time 7:14 AM CST 5:26 PM CST
Civil Twilight 6:43 AM CST 5:57 PM CST
Nautical Twilight 6:08 AM CST 6:32 PM CST
Astronomical Twilight 5:33 AM CST 7:07 PM CST
Moon 7:30 AM CST (2/11) 7:33 PM CST (2/11)
Length of Visible Light 11h 14m
Length of Day
10h 12m
Waxing Crescent, 3% of the Moon is Illuminated
Feb 11
Waxing Crescent
Feb 17
First Quarter
Feb 25
Full
Mar 4
Last Quarter
Mar 11
New

Hourly Weather History & Observations

Time (CST) Temp. Windchill Dew Point Humidity Pressure Visibility Wind Dir Wind Speed Gust Speed Precip Events Conditions
12:32 AM 30.2 °F 26.7 °F 28.4 °F 93% 29.25 in 2.5 mi Variable 3.5 mph - 0.00 in Snow Light Snow
12:43 AM 30.2 °F 26.7 °F 28.4 °F 93% 29.25 in 3.0 mi Variable 3.5 mph - 0.00 in Snow Light Snow
12:51 AM 30.2 °F 26.7 °F 28.4 °F 93% 29.25 in 2.5 mi Variable 3.5 mph - 0.00 in Snow Light Snow
12:53 AM 30.9 °F 27.5 °F 28.9 °F 92% 29.30 in 2.5 mi Variable 3.5 mph - 0.00 in Snow Light Snow
1:09 AM 30.2 °F 26.7 °F 28.4 °F 93% 29.26 in 3.0 mi North 3.5 mph - 0.00 in   Overcast
1:53 AM 30.9 °F 27.5 °F 28.9 °F 92% 29.31 in 2.0 mi Variable 3.5 mph - 0.00 in Snow Light Snow
2:01 AM 30.2 °F 26.7 °F 28.4 °F 93% 29.27 in 1.5 mi Variable 3.5 mph - 0.00 in Snow Light Snow
2:12 AM 30.2 °F 25.4 °F 28.4 °F 93% 29.27 in 1.0 mi Variable 4.6 mph - 0.02 in Snow Light Snow
2:29 AM 30.2 °F - 28.4 °F 93% 29.28 in 1.2 mi Calm Calm - 0.02 in Snow Light Snow
2:38 AM 30.2 °F - 28.4 °F 93% 29.28 in 1.5 mi Calm Calm - 0.02 in Snow Light Snow
2:53 AM 30.9 °F 27.5 °F 28.9 °F 92% 29.33 in 1.5 mi Variable 3.5 mph - 0.03 in Snow Light Snow
3:04 AM 30.2 °F - 28.4 °F 93% 29.29 in 1.0 mi Calm Calm - 0.00 in Snow Light Snow
3:12 AM 30.2 °F 26.7 °F 28.4 °F 93% 29.29 in 1.2 mi Variable 3.5 mph - 0.00 in Snow Light Snow
3:31 AM 30.2 °F 26.7 °F 28.4 °F 93% 29.29 in 3.0 mi Variable 3.5 mph - 0.01 in Snow Light Snow
3:53 AM 30.9 °F 27.5 °F 28.0 °F 89% 29.35 in 7.0 mi Variable 3.5 mph - 0.01 in   Overcast
4:42 AM 30.2 °F 25.4 °F 28.4 °F 93% 29.33 in 2.5 mi NW 4.6 mph - 0.00 in Snow Light Snow
4:50 AM 30.2 °F 26.7 °F 28.4 °F 93% 29.34 in 3.0 mi Variable 3.5 mph - 0.00 in Snow Light Snow
4:53 AM 30.9 °F 25.2 °F 28.0 °F 89% 29.38 in 4.0 mi Variable 5.8 mph - 0.00 in Snow Light Snow
5:53 AM 30.0 °F 23.2 °F 27.0 °F 88% 29.43 in 10.0 mi Variable 6.9 mph - 0.00 in   Overcast
6:29 AM 28.4 °F 19.7 °F 26.6 °F 93% 29.42 in 6.0 mi NW 9.2 mph - 0.00 in   Overcast
6:53 AM 28.9 °F 23.9 °F 25.0 °F 85% 29.48 in 10.0 mi Variable 4.6 mph - 0.00 in   Overcast
7:41 AM 28.4 °F 23.3 °F 24.8 °F 86% 29.48 in 10.0 mi Variable 4.6 mph - N/A   Overcast
7:53 AM 27.0 °F 17.3 °F 23.0 °F 85% 29.54 in 8.0 mi NNW 10.4 mph 18.4 mph N/A   Overcast
8:25 AM 26.6 °F 19.1 °F 24.8 °F 93% 29.51 in 4.0 mi Variable 6.9 mph - 0.00 in   Overcast
8:53 AM 26.1 °F 19.4 °F 21.9 °F 84% 29.58 in 9.0 mi Variable 5.8 mph - 0.00 in   Overcast
9:03 AM 26.6 °F 17.5 °F 21.2 °F 80% 29.54 in 10.0 mi NW 9.2 mph - N/A   Overcast
9:53 AM 25.0 °F 16.3 °F 21.0 °F 85% 29.61 in 4.0 mi WNW 8.1 mph - 0.00 in Snow Light Snow
10:08 AM 26.6 °F 20.0 °F 21.2 °F 80% 29.57 in 2.5 mi Variable 5.8 mph - 0.00 in Snow Light Snow
10:53 AM 25.0 °F 17.1 °F 19.9 °F 81% 29.66 in 8.0 mi WNW 6.9 mph - 0.00 in Snow Light Snow
11:53 AM 25.0 °F 17.1 °F 19.9 °F 81% 29.69 in 10.0 mi Variable 6.9 mph - N/A   Overcast
12:53 PM 25.0 °F 16.3 °F 19.0 °F 78% 29.71 in 10.0 mi West 8.1 mph - N/A   Overcast
1:53 PM 25.0 °F 19.3 °F 19.9 °F 81% 29.74 in 9.0 mi Variable 4.6 mph - 0.00 in   Overcast
2:53 PM 25.0 °F 17.1 °F 19.0 °F 78% 29.78 in 5.0 mi Variable 6.9 mph - 0.00 in Snow Light Snow
3:53 PM 24.1 °F 17.0 °F 18.0 °F 77% 29.81 in 8.0 mi Variable 5.8 mph - 0.00 in Snow Light Snow
4:53 PM 24.1 °F 17.0 °F 18.0 °F 77% 29.84 in 10.0 mi Variable 5.8 mph - N/A   Overcast
5:53 PM 24.1 °F 18.2 °F 17.1 °F 75% 29.87 in 10.0 mi Variable 4.6 mph - N/A   Overcast
6:53 PM 23.0 °F 18.4 °F 17.1 °F 78% 29.91 in 10.0 mi Variable 3.5 mph - N/A   Overcast
7:53 PM 23.0 °F - 16.0 °F 74% 29.93 in 10.0 mi Calm Calm - N/A   Overcast
8:53 PM 21.9 °F 17.2 °F 16.0 °F 78% 29.95 in 10.0 mi Variable 3.5 mph - N/A   Overcast
10:53 PM 21.0 °F - 15.1 °F 78% 29.99 in 10.0 mi Calm Calm - N/A   Overcast
11:53 PM 21.0 °F - 15.1 °F 78% 29.99 in 9.0 mi Calm Calm - 0.00 in   Overcast